Litchfield, MN

11:05 AM CDT on April 21, 2018 (GMT -0500)
Litchfield Municipal

Weather History for KLJF - April, 2014

Change the Weather History Date:

Wednesday, April 16, 2014

  Actual Average Record
Temperature  
Mean Temperature 30 °F -  
Max Temperature 33 °F 60 °F 84 °F (1958)
Min Temperature 28 °F 36 °F 18 °F (1961)
Degree Days  
Heating Degree Days 34    
Moisture  
Dew Point 27 °F    
Average Humidity 87    
Maximum Humidity 100    
Minimum Humidity 44    
Precipitation  
Precipitation 0.15 in - - ()
Sea Level Pressure  
Sea Level Pressure 29.93 in    
Wind  
Wind Speed 15 mph (ENE)    
Max Wind Speed 21 mph    
Max Gust Speed 28 mph    
Visibility 5 miles    
Events Snow    
Averages and records for this station are not official NWS values.
T = Trace of Precipitation, MM = Missing Value Source: NWS Daily Summary

Daily Weather History Graph

Daily Weather History Graph

Search for Another Location

Airport or City:

Astronomy

Apr. 16, 2014 Rise Set
Actual Time 6:31 AM CDT 8:05 PM CDT
Civil Twilight 6:00 AM CDT 8:35 PM CDT
Nautical Twilight 5:23 AM CDT 9:13 PM CDT
Astronomical Twilight 4:43 AM CDT 9:53 PM CDT
Moon 9:53 PM CDT (4/16) 7:16 AM CDT (4/16)
Length of Visible Light 14h 35m
Length of Day
13h 33m
Full, 98% of the Moon is Illuminated
Apr 16
Full
Apr 22
Last Quarter
Apr 29
New
May 6
First Quarter
May 14
Full

Hourly Weather History & Observations

Time (CDT) Temp. Windchill Dew Point Humidity Pressure Visibility Wind Dir Wind Speed Gust Speed Precip Events Conditions
12:13 AM 33.8 °F 24.3 °F 14.0 °F 44% 30.00 in 10.0 mi ESE 13.8 mph - N/A   Overcast
12:33 AM 33.8 °F 24.3 °F 15.8 °F 48% 30.00 in 10.0 mi East 13.8 mph - N/A   Overcast
12:52 AM 33.8 °F 23.5 °F 15.8 °F 48% 29.99 in 10.0 mi East 16.1 mph 23.0 mph N/A   Overcast
1:13 AM 33.8 °F 22.8 °F 17.6 °F 52% 29.99 in 10.0 mi East 18.4 mph - N/A   Overcast
1:33 AM 33.8 °F 23.5 °F 19.4 °F 56% 29.98 in 10.0 mi East 16.1 mph 25.3 mph N/A   Overcast
1:52 AM 33.8 °F 22.8 °F 21.2 °F 60% 29.97 in 10.0 mi East 18.4 mph 21.9 mph N/A   Overcast
2:13 AM 33.8 °F 22.2 °F 21.2 °F 60% 29.97 in 10.0 mi East 20.7 mph - N/A   Mostly Cloudy
2:32 AM 33.8 °F 23.9 °F 21.2 °F 60% 29.96 in 10.0 mi East 15.0 mph 25.3 mph N/A   Mostly Cloudy
2:53 AM 33.8 °F 24.3 °F 21.2 °F 60% 29.95 in 10.0 mi East 13.8 mph 23.0 mph N/A   Mostly Cloudy
3:13 AM 32.0 °F 21.2 °F 21.2 °F 64% 29.95 in 10.0 mi East 16.1 mph 21.9 mph N/A   Scattered Clouds
3:32 AM 32.0 °F 21.2 °F 21.2 °F 64% 29.94 in 10.0 mi East 16.1 mph 19.6 mph N/A   Scattered Clouds
3:53 AM 32.0 °F 20.5 °F 21.2 °F 64% 29.93 in 10.0 mi East 18.4 mph 21.9 mph N/A   Mostly Cloudy
4:13 AM 30.2 °F 18.1 °F 24.8 °F 80% 29.92 in 10.0 mi East 18.4 mph 21.9 mph N/A   Scattered Clouds
4:32 AM 30.2 °F 19.8 °F 24.8 °F 80% 29.92 in 10.0 mi East 13.8 mph - N/A   Scattered Clouds
4:53 AM 30.2 °F 18.9 °F 24.8 °F 80% 29.91 in 10.0 mi East 16.1 mph 25.3 mph N/A   Mostly Cloudy
5:13 AM 30.2 °F 19.3 °F 24.8 °F 80% 29.90 in 10.0 mi East 15.0 mph - N/A   Scattered Clouds
5:32 AM 30.2 °F 18.9 °F 23.0 °F 75% 29.90 in 10.0 mi East 16.1 mph 20.7 mph N/A   Clear
5:53 AM 30.2 °F 18.5 °F 23.0 °F 75% 29.90 in 10.0 mi East 17.3 mph 20.7 mph N/A   Clear
6:12 AM 30.2 °F 20.2 °F 23.0 °F 75% 29.90 in 10.0 mi East 12.7 mph - N/A   Clear
6:33 AM 30.2 °F 19.8 °F 24.8 °F 80% 29.90 in 10.0 mi East 13.8 mph - N/A   Scattered Clouds
6:53 AM 30.2 °F 19.8 °F 24.8 °F 80% 29.90 in 10.0 mi East 13.8 mph - N/A   Scattered Clouds
7:12 AM 30.2 °F 20.8 °F 24.8 °F 80% 29.90 in 10.0 mi East 11.5 mph - N/A   Scattered Clouds
7:33 AM 32.0 °F 21.2 °F 21.2 °F 64% 29.90 in 10.0 mi East 16.1 mph - N/A   Scattered Clouds
7:53 AM 33.8 °F 24.3 °F 21.2 °F 60% 29.90 in 10.0 mi East 13.8 mph - N/A   Scattered Clouds
8:12 AM 33.8 °F 23.5 °F 21.2 °F 60% 29.90 in 7.0 mi East 16.1 mph 19.6 mph N/A   Mostly Cloudy
8:53 AM 30.2 °F 18.9 °F 30.2 °F 100% 29.90 in 0.5 mi East 16.1 mph 21.9 mph N/A Snow Light Snow
9:12 AM 30.2 °F 19.8 °F 28.4 °F 93% 29.89 in 0.5 mi East 13.8 mph 24.2 mph N/A Snow Light Snow
9:33 AM 30.2 °F 19.3 °F 30.2 °F 100% 29.89 in 0.2 mi East 15.0 mph 23.0 mph N/A Snow Snow
9:53 AM 30.2 °F 18.1 °F 30.2 °F 100% 29.87 in 0.2 mi East 18.4 mph 24.2 mph N/A Snow Snow
10:13 AM 30.2 °F 19.3 °F 30.2 °F 100% 29.87 in 0.5 mi East 15.0 mph 23.0 mph N/A Snow Light Snow
10:52 AM 30.2 °F 20.2 °F 30.2 °F 100% 29.88 in 0.2 mi East 12.7 mph 18.4 mph N/A Snow Snow
11:13 AM 30.2 °F 20.8 °F 30.2 °F 100% 29.88 in 0.5 mi East 11.5 mph - N/A Snow Snow
11:33 AM 30.2 °F 20.8 °F 30.2 °F 100% 29.87 in 0.5 mi ENE 11.5 mph - N/A Snow Light Snow
11:52 AM 30.2 °F 20.2 °F 30.2 °F 100% 29.88 in 0.2 mi East 12.7 mph 17.3 mph 0.01 in Snow Snow
12:13 PM 30.2 °F 20.2 °F 30.2 °F 100% 29.86 in 0.2 mi ENE 12.7 mph - 0.02 in Snow Snow
12:33 PM 30.2 °F 20.8 °F 30.2 °F 100% 29.87 in 0.2 mi ENE 11.5 mph - 0.03 in Snow Snow
12:52 PM 30.2 °F 21.3 °F 30.2 °F 100% 29.88 in 0.2 mi ENE 10.4 mph - N/A Snow Heavy Snow
1:13 PM 30.2 °F 21.9 °F 30.2 °F 100% 29.88 in 0.2 mi ENE 9.2 mph - 0.02 in Snow Snow
1:33 PM 30.2 °F 21.3 °F 30.2 °F 100% 29.88 in 0.2 mi ENE 10.4 mph - 0.04 in Snow Snow
1:52 PM 30.2 °F 19.3 °F 30.2 °F 100% 29.88 in 0.2 mi ENE 15.0 mph - N/A Snow Snow
2:13 PM 30.2 °F 19.8 °F 30.2 °F 100% 29.88 in 0.2 mi NE 13.8 mph 20.7 mph 0.02 in Snow Snow
2:33 PM 30.2 °F 20.2 °F 30.2 °F 100% 29.89 in 0.2 mi NE 12.7 mph 17.3 mph 0.03 in Snow Snow
2:53 PM 30.2 °F 19.8 °F 30.2 °F 100% 29.89 in 0.5 mi NE 13.8 mph - 0.01 in Snow Light Snow
3:13 PM 30.2 °F 18.9 °F 30.2 °F 100% 29.89 in 0.2 mi NE 16.1 mph 24.2 mph 0.02 in Snow Snow
3:33 PM 30.2 °F 19.8 °F 30.2 °F 100% 29.89 in 0.2 mi NE 13.8 mph - 0.03 in Snow Snow
3:52 PM 30.2 °F 19.8 °F 30.2 °F 100% 29.90 in 0.5 mi NE 13.8 mph 20.7 mph N/A Snow Light Snow
4:13 PM 30.2 °F 19.3 °F 30.2 °F 100% 29.90 in 0.5 mi NE 15.0 mph 18.4 mph 0.01 in Snow Light Snow
4:53 PM 30.2 °F 19.3 °F 30.2 °F 100% 29.91 in 0.2 mi NE 15.0 mph 20.7 mph N/A Snow Snow
5:13 PM 30.2 °F 18.9 °F 30.2 °F 100% 29.90 in 0.2 mi NE 16.1 mph 21.9 mph N/A Snow Snow
5:33 PM 30.2 °F 19.3 °F 30.2 °F 100% 29.92 in 0.5 mi NNE 15.0 mph 21.9 mph N/A Snow Snow
5:53 PM 30.2 °F 18.5 °F 30.2 °F 100% 29.92 in 0.5 mi NNE 17.3 mph 24.2 mph N/A Snow Light Snow
6:13 PM 30.2 °F 18.5 °F 30.2 °F 100% 29.93 in 0.5 mi NNE 17.3 mph 21.9 mph N/A Snow Light Snow
6:33 PM 30.2 °F 18.5 °F 30.2 °F 100% 29.94 in 0.5 mi NNE 17.3 mph 21.9 mph N/A Snow Light Snow
6:53 PM 30.2 °F 18.1 °F 30.2 °F 100% 29.94 in 0.8 mi NE 18.4 mph - N/A Snow Light Snow
7:13 PM 30.2 °F 18.5 °F 30.2 °F 100% 29.95 in 1.0 mi NNE 17.3 mph 23.0 mph N/A Snow Light Snow
7:32 PM 30.2 °F 18.9 °F 30.2 °F 100% 29.96 in 1.0 mi NNE 16.1 mph 23.0 mph N/A Snow Light Snow
7:53 PM 30.2 °F 18.9 °F 30.2 °F 100% 29.98 in 1.8 mi North 16.1 mph 20.7 mph N/A Snow Light Snow
8:13 PM 30.2 °F 18.9 °F 28.4 °F 93% 29.97 in 2.5 mi North 16.1 mph 25.3 mph N/A Snow Light Snow
8:32 PM 30.2 °F 17.4 °F 28.4 °F 93% 29.97 in 5.0 mi NNE 20.7 mph 27.6 mph N/A   Overcast
8:53 PM 30.2 °F 17.8 °F 28.4 °F 93% 29.99 in 10.0 mi North 19.6 mph 27.6 mph N/A   Overcast
9:13 PM 28.4 °F 17.0 °F 28.4 °F 100% 30.00 in 10.0 mi North 15.0 mph - N/A   Overcast
9:32 PM 28.4 °F 15.1 °F 28.4 °F 100% 30.01 in 10.0 mi North 20.7 mph 26.5 mph N/A   Overcast
9:53 PM 28.4 °F 16.6 °F 26.6 °F 93% 30.02 in 10.0 mi North 16.1 mph 27.6 mph N/A   Overcast
10:13 PM 28.4 °F 15.8 °F 26.6 °F 93% 30.02 in 10.0 mi North 18.4 mph 26.5 mph N/A   Overcast
10:32 PM 28.4 °F 15.8 °F 26.6 °F 93% 30.03 in 10.0 mi North 18.4 mph 25.3 mph N/A   Overcast
10:53 PM 28.4 °F 16.2 °F 26.6 °F 93% 30.04 in 10.0 mi North 17.3 mph 25.3 mph N/A   Overcast
11:13 PM 28.4 °F 15.8 °F 26.6 °F 93% 30.04 in 10.0 mi North 18.4 mph 25.3 mph N/A   Overcast
11:32 PM 28.4 °F 16.6 °F 26.6 °F 93% 30.04 in 10.0 mi North 16.1 mph 21.9 mph N/A   Overcast
11:53 PM 28.4 °F 17.5 °F 26.6 °F 93% 30.05 in 10.0 mi North 13.8 mph 20.7 mph N/A   Overcast